Location: Fort Wayne
(41.1310°N, 85.1290°W)
Time: 11:20:49
(UTC-04:00)

IDEFIX/ARIANE 42P - Visible Passes

Search period start: 24 July 2014 00:00
Search period end: 03 August 2014 00:00
Orbit: 785 x 805 km, 98.3° (Epoch: 24 July)

Date Brightness Start Highest point End Pass type
(mag) Time Alt. Az. Time Alt. Az. Time Alt. Az.
24 Jul 5.0 22:36:50 10° SW 22:40:32 19° W 22:44:13 10° NW visible
25 Jul 4.1 22:07:28 10° SSW 22:12:12 35° W 22:16:57 10° NNW visible
26 Jul 3.1 21:38:49 10° S 21:43:59 64° W 21:49:10 10° NNW visible
27 Jul 5.2 22:53:29 10° WSW 22:56:00 14° W 22:58:32 10° WNW visible
28 Jul 4.6 22:23:22 10° SSW 22:27:36 25° W 22:31:51 10° NW visible
29 Jul 3.6 21:54:21 10° S 21:59:20 45° W 22:04:19 10° NNW visible
30 Jul 2.7 21:25:57 10° SSE 21:31:10 83° WSW 21:36:23 10° NNW visible
31 Jul 5.0 22:39:35 10° SW 22:43:03 18° W 22:46:31 10° NW visible
01 Aug 4.2 22:10:05 10° SSW 22:14:42 32° W 22:19:21 10° NNW visible
02 Aug 3.2 21:41:21 10° S 21:46:29 59° W 21:51:37 10° NNW visible
